sat.trackr.live / text

‹ back to catalog

STARLINK-30826

NORAD 58188 · 2023-167P

PAYLOAD ACTIVE UNKNOWN

§ Identity

Operator
Country
US
Launch date
2023-10-30
Launch site
AFETR
Launch vehicle
Mass (kg)
RCS (m²)

Purposes: comms

External: N2YO · Heavens-Above · Gunter

§ Orbital elements

Epoch: 2026-09-20T00:10:38.603136Z

Period
94.27 min
Inclination
43.0082°
Eccentricity
0.0000723
Mean motion
15.27578213 rev/d
Perigee alt
482.6 km
Apogee alt
483.6 km
Semi-major
6,861.2 km
B*
2.3156e-5
RAAN
125.9764°
Arg perigee
280.0809°
Mean anomaly
79.9961°
Rev number
16,070

§ Raw data

STARLINK-308261 58188U 23167P   26263.00739124  .00000375  00000+0  23156-4 0  99992 58188  43.0082 125.9764 0000723 280.0809  79.9961 15.27578213160708

JSON: /api/v1/satellites/58188 · /tle

For live sub-satellite position, see the globe view (requires WebGL).

§ Visibility from observer

Set your observer location to see the next 7 days of passes ≥ 10°. The values pass through the URL so the page stays shareable.

No JS? Fill the form by hand. The geolocation button needs JavaScript.